Year,Month,Day,Hour,Minute,Value (Times are PST for temperature in C)
2016,07,22,00,00,20.10
2016,07,22,00,01,20.10
2016,07,22,00,02,20.10
2016,07,22,00,03,20.10
2016,07,22,00,04,20.00
2016,07,22,00,05,20.00
2016,07,22,00,06,20.00
2016,07,22,00,07,19.90
2016,07,22,00,08,19.90
2016,07,22,00,09,19.90
2016,07,22,00,10,19.80
2016,07,22,00,11,19.80
2016,07,22,00,12,19.80
2016,07,22,00,13,19.70
2016,07,22,00,14,19.70
2016,07,22,00,15,19.70
2016,07,22,00,16,19.60
2016,07,22,00,17,19.60
2016,07,22,00,18,19.60
2016,07,22,00,19,19.60
2016,07,22,00,20,19.50
2016,07,22,00,21,19.50
2016,07,22,00,22,19.50
2016,07,22,00,23,19.40
2016,07,22,00,24,19.40
2016,07,22,00,25,19.40
2016,07,22,00,26,19.40
2016,07,22,00,27,19.40
2016,07,22,00,28,19.40
2016,07,22,00,29,19.30
2016,07,22,00,30,19.30
2016,07,22,00,31,19.30
2016,07,22,00,32,19.30
2016,07,22,00,33,19.30
2016,07,22,00,34,19.30
2016,07,22,00,35,19.30
2016,07,22,00,36,19.20
2016,07,22,00,37,19.20
2016,07,22,00,38,19.20
2016,07,22,00,39,19.20
2016,07,22,00,40,19.20
2016,07,22,00,41,19.10
2016,07,22,00,42,19.10
2016,07,22,00,43,19.10
2016,07,22,00,44,19.10
2016,07,22,00,45,19.10
2016,07,22,00,46,19.00
2016,07,22,00,47,19.00
2016,07,22,00,48,19.00
2016,07,22,00,49,19.00
2016,07,22,00,50,19.00
2016,07,22,00,51,19.00
2016,07,22,00,52,19.00
2016,07,22,00,53,19.10
2016,07,22,00,54,19.10
2016,07,22,00,55,19.10
2016,07,22,00,56,19.10
2016,07,22,00,57,19.10
2016,07,22,00,58,19.10
2016,07,22,00,59,19.00
2016,07,22,01,00,19.00
2016,07,22,01,01,19.00
2016,07,22,01,02,18.90
2016,07,22,01,03,18.90
2016,07,22,01,04,18.90
2016,07,22,01,05,18.80
2016,07,22,01,06,18.90
2016,07,22,01,07,18.90
2016,07,22,01,08,18.90
2016,07,22,01,09,18.90
2016,07,22,01,10,18.90
2016,07,22,01,11,18.90
2016,07,22,01,12,18.90
2016,07,22,01,13,18.90
2016,07,22,01,14,18.90
2016,07,22,01,15,18.90
2016,07,22,01,16,18.90
2016,07,22,01,17,18.90
2016,07,22,01,18,18.90
2016,07,22,01,19,18.90
2016,07,22,01,20,18.90
2016,07,22,01,21,18.90
2016,07,22,01,22,18.90
2016,07,22,01,23,18.90
2016,07,22,01,24,18.90
2016,07,22,01,25,18.80
2016,07,22,01,26,18.80
2016,07,22,01,27,18.80
2016,07,22,01,28,18.80
2016,07,22,01,29,18.80
2016,07,22,01,30,18.70
2016,07,22,01,31,18.70
2016,07,22,01,32,18.70
2016,07,22,01,33,18.70
2016,07,22,01,34,18.70
2016,07,22,01,35,18.70
2016,07,22,01,36,18.70
2016,07,22,01,37,18.70
2016,07,22,01,38,18.70
2016,07,22,01,39,18.60
2016,07,22,01,40,18.60
2016,07,22,01,41,18.60
2016,07,22,01,42,18.60
2016,07,22,01,43,18.60
2016,07,22,01,44,18.60
2016,07,22,01,45,18.60
2016,07,22,01,46,18.60
2016,07,22,01,47,18.60
2016,07,22,01,48,18.60
2016,07,22,01,49,18.60
2016,07,22,01,50,18.60
2016,07,22,01,51,18.60
2016,07,22,01,52,18.50
2016,07,22,01,53,18.60
2016,07,22,01,54,18.50
2016,07,22,01,55,18.50
2016,07,22,01,56,18.50
2016,07,22,01,57,18.50
2016,07,22,01,58,18.50
2016,07,22,01,59,18.50
2016,07,22,02,00,18.50
2016,07,22,02,01,18.50
2016,07,22,02,02,18.50
2016,07,22,02,03,18.50
2016,07,22,02,04,18.50
2016,07,22,02,05,18.50
2016,07,22,02,06,18.50
2016,07,22,02,07,18.50
2016,07,22,02,08,18.50
2016,07,22,02,09,18.40
2016,07,22,02,10,18.40
2016,07,22,02,11,18.40
2016,07,22,02,12,18.40
2016,07,22,02,13,18.40
2016,07,22,02,14,18.40
2016,07,22,02,15,18.40
2016,07,22,02,16,18.40
2016,07,22,02,17,18.40
2016,07,22,02,18,18.40
2016,07,22,02,19,18.40
2016,07,22,02,20,18.40
2016,07,22,02,21,18.40
2016,07,22,02,22,18.40
2016,07,22,02,23,18.40
2016,07,22,02,24,18.40
2016,07,22,02,25,18.40
2016,07,22,02,26,18.40
2016,07,22,02,27,18.40
2016,07,22,02,28,18.40
2016,07,22,02,29,18.30
2016,07,22,02,30,18.30
2016,07,22,02,31,18.30
2016,07,22,02,32,18.30
2016,07,22,02,33,18.30
2016,07,22,02,34,18.30
2016,07,22,02,35,18.20
2016,07,22,02,36,18.20
2016,07,22,02,37,18.20
2016,07,22,02,38,18.20
2016,07,22,02,39,18.20
2016,07,22,02,40,18.20
2016,07,22,02,41,18.20
2016,07,22,02,42,18.20
2016,07,22,02,43,18.20
2016,07,22,02,44,18.20
2016,07,22,02,45,18.20
2016,07,22,02,46,18.20
2016,07,22,02,47,18.20
2016,07,22,02,48,18.20
2016,07,22,02,49,18.20
2016,07,22,02,50,18.10
2016,07,22,02,51,18.10
2016,07,22,02,52,18.10
2016,07,22,02,53,18.10
2016,07,22,02,54,18.10
2016,07,22,02,55,18.10
2016,07,22,02,56,18.10
2016,07,22,02,57,18.20
2016,07,22,02,58,18.10
2016,07,22,02,59,18.10
2016,07,22,03,00,18.10
2016,07,22,03,01,18.10
2016,07,22,03,02,18.20
2016,07,22,03,03,18.20
2016,07,22,03,04,18.20
2016,07,22,03,05,18.20
2016,07,22,03,06,18.20
2016,07,22,03,07,18.20
2016,07,22,03,08,18.20
2016,07,22,03,09,18.20
2016,07,22,03,10,18.20
2016,07,22,03,11,18.20
2016,07,22,03,12,18.20
2016,07,22,03,13,18.20
2016,07,22,03,14,18.20
2016,07,22,03,15,18.20
2016,07,22,03,16,18.20
2016,07,22,03,17,18.20
2016,07,22,03,18,18.20
2016,07,22,03,19,18.20
2016,07,22,03,20,18.20
2016,07,22,03,21,18.20
2016,07,22,03,22,18.20
2016,07,22,03,23,18.10
2016,07,22,03,24,18.10
2016,07,22,03,25,18.10
2016,07,22,03,26,18.10
2016,07,22,03,27,18.10
2016,07,22,03,28,18.10
2016,07,22,03,29,18.10
2016,07,22,03,30,18.10
2016,07,22,03,31,18.00
2016,07,22,03,32,18.00
2016,07,22,03,33,18.00
2016,07,22,03,34,17.90
2016,07,22,03,35,17.90
2016,07,22,03,36,17.90
2016,07,22,03,37,17.90
2016,07,22,03,38,17.90
2016,07,22,03,39,17.90
2016,07,22,03,40,17.90
2016,07,22,03,41,17.90
2016,07,22,03,42,17.80
2016,07,22,03,43,17.80
2016,07,22,03,44,17.80
2016,07,22,03,45,17.80
2016,07,22,03,46,17.80
2016,07,22,03,47,17.80
2016,07,22,03,48,17.80
2016,07,22,03,49,17.80
2016,07,22,03,50,17.80
2016,07,22,03,51,17.70
2016,07,22,03,52,17.70
2016,07,22,03,53,17.70
2016,07,22,03,54,17.70
2016,07,22,03,55,17.70
2016,07,22,03,56,17.70
2016,07,22,03,57,17.70
2016,07,22,03,58,17.70
2016,07,22,03,59,17.70
2016,07,22,04,00,17.70
2016,07,22,04,01,17.60
2016,07,22,04,02,17.60
2016,07,22,04,03,17.60
2016,07,22,04,04,17.60
2016,07,22,04,05,17.60
2016,07,22,04,06,17.60
2016,07,22,04,07,17.60
2016,07,22,04,08,17.60
2016,07,22,04,09,17.60
2016,07,22,04,10,17.60
2016,07,22,04,11,17.60
2016,07,22,04,12,17.60
2016,07,22,04,13,17.60
2016,07,22,04,14,17.60
2016,07,22,04,15,17.60
2016,07,22,04,16,17.60
2016,07,22,04,17,17.60
2016,07,22,04,18,17.50
2016,07,22,04,19,17.50
2016,07,22,04,20,17.50
2016,07,22,04,21,17.50
2016,07,22,04,22,17.50
2016,07,22,04,23,17.50
2016,07,22,04,24,17.50
2016,07,22,04,25,17.50
2016,07,22,04,26,17.50
2016,07,22,04,27,17.50
2016,07,22,04,28,17.50
2016,07,22,04,29,17.50
2016,07,22,04,30,17.50
2016,07,22,04,31,17.60
2016,07,22,04,32,17.60
2016,07,22,04,33,17.60
2016,07,22,04,34,17.60
2016,07,22,04,35,17.60
2016,07,22,04,36,17.60
2016,07,22,04,37,17.60
2016,07,22,04,38,17.60
2016,07,22,04,39,17.60
2016,07,22,04,40,17.60
2016,07,22,04,41,17.60
2016,07,22,04,42,17.60
2016,07,22,04,43,17.60
2016,07,22,04,44,17.60
2016,07,22,04,45,17.60
2016,07,22,04,46,17.60
2016,07,22,04,47,17.60
2016,07,22,04,48,17.60
2016,07,22,04,49,17.50
2016,07,22,04,50,17.50
2016,07,22,04,51,17.50
2016,07,22,04,52,17.50
2016,07,22,04,53,17.50
2016,07,22,04,54,17.50
2016,07,22,04,55,17.60
2016,07,22,04,56,17.60
2016,07,22,04,57,17.60
2016,07,22,04,58,17.70
2016,07,22,04,59,17.70
2016,07,22,05,00,17.70
2016,07,22,05,01,17.70
2016,07,22,05,02,17.70
2016,07,22,05,03,17.70
2016,07,22,05,04,17.70
2016,07,22,05,05,17.70
2016,07,22,05,06,17.70
2016,07,22,05,07,17.70
2016,07,22,05,08,17.80
2016,07,22,05,09,17.80
2016,07,22,05,10,17.80
2016,07,22,05,11,17.80
2016,07,22,05,12,17.90
2016,07,22,05,13,17.90
2016,07,22,05,14,17.90
2016,07,22,05,15,17.90
2016,07,22,05,16,17.90
2016,07,22,05,17,17.90
2016,07,22,05,18,17.90
2016,07,22,05,19,17.90
2016,07,22,05,20,17.90
2016,07,22,05,21,17.80
2016,07,22,05,22,17.80
2016,07,22,05,23,17.80
2016,07,22,05,24,17.80
2016,07,22,05,25,17.80
2016,07,22,05,26,17.80
2016,07,22,05,27,17.80
2016,07,22,05,28,17.80
2016,07,22,05,29,17.80
2016,07,22,05,30,17.80
2016,07,22,05,31,17.80
2016,07,22,05,32,17.80
2016,07,22,05,33,17.80
2016,07,22,05,34,17.80
2016,07,22,05,35,17.80
2016,07,22,05,36,17.70
2016,07,22,05,37,17.70
2016,07,22,05,38,17.70
2016,07,22,05,39,17.70
2016,07,22,05,40,17.70
2016,07,22,05,41,17.70
2016,07,22,05,42,17.60
2016,07,22,05,43,17.60
2016,07,22,05,44,17.70
2016,07,22,05,45,17.70
2016,07,22,05,46,17.70
2016,07,22,05,47,17.70
2016,07,22,05,48,17.70
2016,07,22,05,49,17.70
2016,07,22,05,50,17.70
2016,07,22,05,51,17.70
2016,07,22,05,52,17.70
2016,07,22,05,53,17.70
2016,07,22,05,54,17.70
2016,07,22,05,55,17.70
2016,07,22,05,56,17.70
2016,07,22,05,57,17.70
2016,07,22,05,58,17.70
2016,07,22,05,59,17.70
2016,07,22,06,00,17.70
2016,07,22,06,01,17.60
2016,07,22,06,02,17.60
2016,07,22,06,03,17.60
2016,07,22,06,04,17.60
2016,07,22,06,05,17.60
2016,07,22,06,06,17.60
2016,07,22,06,07,17.50
2016,07,22,06,08,17.50
2016,07,22,06,09,17.50
2016,07,22,06,10,17.50
2016,07,22,06,11,17.50
2016,07,22,06,12,17.40
2016,07,22,06,13,17.40
2016,07,22,06,14,17.40
2016,07,22,06,15,17.40
2016,07,22,06,16,17.40
2016,07,22,06,17,17.40
2016,07,22,06,18,17.30
2016,07,22,06,19,17.30
2016,07,22,06,20,17.30
2016,07,22,06,21,17.30
2016,07,22,06,22,17.30
2016,07,22,06,23,17.20
2016,07,22,06,24,17.20
2016,07,22,06,25,17.20
2016,07,22,06,26,17.20
2016,07,22,06,27,17.20
2016,07,22,06,28,17.10
2016,07,22,06,29,17.10
2016,07,22,06,30,17.10
2016,07,22,06,31,17.10
2016,07,22,06,32,17.10
2016,07,22,06,33,17.10
2016,07,22,06,34,17.10
2016,07,22,06,35,17.10
2016,07,22,06,36,17.10
2016,07,22,06,37,17.10
2016,07,22,06,38,17.00
2016,07,22,06,39,17.10
2016,07,22,06,40,17.00
2016,07,22,06,41,17.00
2016,07,22,06,42,17.10
2016,07,22,06,43,17.10
2016,07,22,06,44,17.10
2016,07,22,06,45,17.10
2016,07,22,06,46,17.10
2016,07,22,06,47,17.10
2016,07,22,06,48,17.10
2016,07,22,06,49,17.10
2016,07,22,06,50,17.10
2016,07,22,06,51,17.10
2016,07,22,06,52,17.20
2016,07,22,06,53,17.20
2016,07,22,06,54,17.20
2016,07,22,06,55,17.20
2016,07,22,06,56,17.30
2016,07,22,06,57,17.30
2016,07,22,06,58,17.30
2016,07,22,06,59,17.30
2016,07,22,07,00,17.40
2016,07,22,07,01,17.40
2016,07,22,07,02,17.40
2016,07,22,07,03,17.50
2016,07,22,07,04,17.50
2016,07,22,07,05,17.60
2016,07,22,07,06,17.60
2016,07,22,07,07,17.60
2016,07,22,07,08,17.70
2016,07,22,07,09,17.70
2016,07,22,07,10,17.70
2016,07,22,07,11,17.70
2016,07,22,07,12,17.70
2016,07,22,07,13,17.80
2016,07,22,07,14,17.80
2016,07,22,07,15,17.80
2016,07,22,07,16,17.80
2016,07,22,07,17,17.90
2016,07,22,07,18,17.90
2016,07,22,07,19,17.90
2016,07,22,07,20,18.00
2016,07,22,07,21,18.00
2016,07,22,07,22,18.10
2016,07,22,07,23,18.10
2016,07,22,07,24,18.20
2016,07,22,07,25,18.20
2016,07,22,07,26,18.20
2016,07,22,07,27,18.20
2016,07,22,07,28,18.30
2016,07,22,07,29,18.30
2016,07,22,07,30,18.30
2016,07,22,07,31,18.40
2016,07,22,07,32,18.40
2016,07,22,07,33,18.50
2016,07,22,07,34,18.50
2016,07,22,07,35,18.60
2016,07,22,07,36,18.70
2016,07,22,07,37,18.70
2016,07,22,07,38,18.80
2016,07,22,07,39,18.90
2016,07,22,07,40,19.00
2016,07,22,07,41,19.10
2016,07,22,07,42,19.10
2016,07,22,07,43,19.20
2016,07,22,07,44,19.20
2016,07,22,07,45,19.20
2016,07,22,07,46,19.30
2016,07,22,07,47,19.30
2016,07,22,07,48,19.30
2016,07,22,07,49,19.40
2016,07,22,07,50,19.40
2016,07,22,07,51,19.40
2016,07,22,07,52,19.50
2016,07,22,07,53,19.50
2016,07,22,07,54,19.50
2016,07,22,07,55,19.60
2016,07,22,07,56,19.60
2016,07,22,07,57,19.60
2016,07,22,07,58,19.70
2016,07,22,07,59,19.70
2016,07,22,08,00,19.70
2016,07,22,08,01,19.80
2016,07,22,08,02,19.80
2016,07,22,08,03,19.80
2016,07,22,08,04,19.80
2016,07,22,08,05,19.90
2016,07,22,08,06,19.90
2016,07,22,08,07,19.90
2016,07,22,08,08,19.90
2016,07,22,08,09,20.00
2016,07,22,08,10,20.00
2016,07,22,08,11,20.00
2016,07,22,08,12,20.00
2016,07,22,08,13,20.00
2016,07,22,08,14,20.00
2016,07,22,08,15,20.00
2016,07,22,08,16,20.10
2016,07,22,08,17,20.10
2016,07,22,08,18,20.10
2016,07,22,08,19,20.10
2016,07,22,08,20,20.10
2016,07,22,08,21,20.10
2016,07,22,08,22,20.10
2016,07,22,08,23,20.10
2016,07,22,08,24,20.10
2016,07,22,08,25,20.10
2016,07,22,08,26,20.10
2016,07,22,08,27,20.20
2016,07,22,08,28,20.20
2016,07,22,08,29,20.20
2016,07,22,08,30,20.30
2016,07,22,08,31,20.30
2016,07,22,08,32,20.30
2016,07,22,08,33,20.30
2016,07,22,08,34,20.30
2016,07,22,08,35,20.30
2016,07,22,08,36,20.30
2016,07,22,08,37,20.30
2016,07,22,08,38,20.30
2016,07,22,08,39,20.30
2016,07,22,08,40,20.30
2016,07,22,08,41,20.30
2016,07,22,08,42,20.30
2016,07,22,08,43,20.30
2016,07,22,08,44,20.30
2016,07,22,08,45,20.40
2016,07,22,08,46,20.40
2016,07,22,08,47,20.40
2016,07,22,08,48,20.40
2016,07,22,08,49,20.50
2016,07,22,08,50,20.50
2016,07,22,08,51,20.60
2016,07,22,08,52,20.60
2016,07,22,08,53,20.60
2016,07,22,08,54,20.70
2016,07,22,08,55,20.70
2016,07,22,08,56,20.70
2016,07,22,08,57,20.60
2016,07,22,08,58,20.60
2016,07,22,08,59,20.60
2016,07,22,09,00,20.50
2016,07,22,09,01,20.50
2016,07,22,09,02,20.50
2016,07,22,09,03,20.50
2016,07,22,09,04,20.50
2016,07,22,09,05,20.50
2016,07,22,09,06,20.60
2016,07,22,09,07,20.60
2016,07,22,09,08,20.60
2016,07,22,09,09,20.70
2016,07,22,09,10,20.70
2016,07,22,09,11,20.80
2016,07,22,09,12,20.80
2016,07,22,09,13,20.80
2016,07,22,09,14,20.80
2016,07,22,09,15,20.90
2016,07,22,09,16,20.90
2016,07,22,09,17,20.90
2016,07,22,09,18,20.90
2016,07,22,09,19,20.90
2016,07,22,09,20,20.80
2016,07,22,09,21,20.80
2016,07,22,09,22,20.80
2016,07,22,09,23,20.80
2016,07,22,09,24,20.80
2016,07,22,09,25,20.80
2016,07,22,09,26,20.70
2016,07,22,09,27,20.70
2016,07,22,09,28,20.60
2016,07,22,09,29,20.60
2016,07,22,09,30,20.60
2016,07,22,09,31,20.60
2016,07,22,09,32,20.60
2016,07,22,09,33,20.60
2016,07,22,09,34,20.70
2016,07,22,09,35,20.70
2016,07,22,09,36,20.70
2016,07,22,09,37,20.80
2016,07,22,09,38,20.80
2016,07,22,09,39,20.80
2016,07,22,09,40,20.90
2016,07,22,09,41,21.00
2016,07,22,09,42,21.00
2016,07,22,09,43,21.10
2016,07,22,09,44,21.10
2016,07,22,09,45,21.20
2016,07,22,09,46,21.20
2016,07,22,09,47,21.10
2016,07,22,09,48,21.10
2016,07,22,09,49,20.90
2016,07,22,09,50,20.80
2016,07,22,09,51,20.70
2016,07,22,09,52,20.60
2016,07,22,09,53,20.50
2016,07,22,09,54,20.40
2016,07,22,09,55,20.30
2016,07,22,09,56,20.30
2016,07,22,09,57,20.20
2016,07,22,09,58,20.20
2016,07,22,09,59,20.10
2016,07,22,10,00,20.10
2016,07,22,10,01,20.10
2016,07,22,10,02,20.10
2016,07,22,10,03,20.00
2016,07,22,10,04,20.00
2016,07,22,10,05,20.00
2016,07,22,10,06,19.90
2016,07,22,10,07,19.90
2016,07,22,10,08,19.90
2016,07,22,10,09,19.90
2016,07,22,10,10,19.90
2016,07,22,10,11,19.90
2016,07,22,10,12,19.90
2016,07,22,10,13,19.90
2016,07,22,10,14,19.80
2016,07,22,10,15,19.80
2016,07,22,10,16,19.80
2016,07,22,10,17,19.80
2016,07,22,10,18,19.80
2016,07,22,10,19,19.80
2016,07,22,10,20,19.80
2016,07,22,10,21,19.80
2016,07,22,10,22,19.80
2016,07,22,10,23,19.80
2016,07,22,10,24,19.80
2016,07,22,10,25,19.80
2016,07,22,10,26,19.80
2016,07,22,10,27,19.80
2016,07,22,10,28,19.80
2016,07,22,10,29,19.80
2016,07,22,10,30,19.80
2016,07,22,10,31,19.90
2016,07,22,10,32,19.90
2016,07,22,10,33,19.90
2016,07,22,10,34,19.90
2016,07,22,10,35,19.90
2016,07,22,10,36,19.90
2016,07,22,10,37,19.90
2016,07,22,10,38,19.90
2016,07,22,10,39,19.90
2016,07,22,10,40,20.00
2016,07,22,10,41,20.10
2016,07,22,10,42,20.10
2016,07,22,10,43,20.10
2016,07,22,10,44,20.10
2016,07,22,10,45,20.10
2016,07,22,10,46,20.10
2016,07,22,10,47,20.20
2016,07,22,10,48,20.10
2016,07,22,10,49,20.10
2016,07,22,10,50,20.20
2016,07,22,10,51,20.20
2016,07,22,10,52,20.20
2016,07,22,10,53,20.20
2016,07,22,10,54,20.20
2016,07,22,10,55,20.20
2016,07,22,10,56,20.30
2016,07,22,10,57,20.30
2016,07,22,10,58,20.30
2016,07,22,10,59,20.30
2016,07,22,11,00,20.30
2016,07,22,11,01,20.30
2016,07,22,11,02,20.30
2016,07,22,11,03,20.30
2016,07,22,11,04,20.30
2016,07,22,11,05,20.30
2016,07,22,11,06,20.30
2016,07,22,11,07,20.40
2016,07,22,11,08,20.30
2016,07,22,11,09,20.30
2016,07,22,11,10,20.30
2016,07,22,11,11,20.30
2016,07,22,11,12,20.30
2016,07,22,11,13,20.30
2016,07,22,11,14,20.30
2016,07,22,11,15,20.40
2016,07,22,11,16,20.40
2016,07,22,11,17,20.40
2016,07,22,11,18,20.40
2016,07,22,11,19,20.40
2016,07,22,11,20,20.40
2016,07,22,11,21,20.50
2016,07,22,11,22,20.50
2016,07,22,11,23,20.50
2016,07,22,11,24,20.50
2016,07,22,11,25,20.50
2016,07,22,11,26,20.50
2016,07,22,11,27,20.50
2016,07,22,11,28,20.50
2016,07,22,11,29,20.50
2016,07,22,11,30,20.50
2016,07,22,11,31,20.50
2016,07,22,11,32,20.50
2016,07,22,11,33,20.40
2016,07,22,11,34,20.40
2016,07,22,11,35,20.40
2016,07,22,11,36,20.40
2016,07,22,11,37,20.40
2016,07,22,11,38,20.40
2016,07,22,11,39,20.30
2016,07,22,11,40,20.30
2016,07,22,11,41,20.30
2016,07,22,11,42,20.30
2016,07,22,11,43,20.30
2016,07,22,11,44,20.30
2016,07,22,11,45,20.30
2016,07,22,11,46,20.30
2016,07,22,11,47,20.30
2016,07,22,11,48,20.30
2016,07,22,11,49,20.30
2016,07,22,11,50,20.30
2016,07,22,11,51,20.30
2016,07,22,11,52,20.30
2016,07,22,11,53,20.30
2016,07,22,11,54,20.30
2016,07,22,11,55,20.30
2016,07,22,11,56,20.30
2016,07,22,11,57,20.40
2016,07,22,11,58,20.40
2016,07,22,11,59,20.40
2016,07,22,12,00,20.40
2016,07,22,12,01,20.40
2016,07,22,12,02,20.50
2016,07,22,12,03,20.60
2016,07,22,12,04,20.60
2016,07,22,12,05,20.60
2016,07,22,12,06,20.60
2016,07,22,12,07,20.60
2016,07,22,12,08,20.50
2016,07,22,12,09,20.50
2016,07,22,12,10,20.50
2016,07,22,12,11,20.50
2016,07,22,12,12,20.40
2016,07,22,12,13,20.50
2016,07,22,12,14,20.50
2016,07,22,12,15,20.60
2016,07,22,12,16,20.60
2016,07,22,12,17,20.70
2016,07,22,12,18,20.70
2016,07,22,12,19,20.80
2016,07,22,12,20,20.80
2016,07,22,12,21,20.80
2016,07,22,12,22,20.90
2016,07,22,12,23,20.90
2016,07,22,12,24,20.90
2016,07,22,12,25,20.90
2016,07,22,12,26,20.90
2016,07,22,12,27,20.90
2016,07,22,12,28,20.90
2016,07,22,12,29,20.90
2016,07,22,12,30,20.90
2016,07,22,12,31,20.90
2016,07,22,12,32,20.90
2016,07,22,12,33,20.90
2016,07,22,12,34,21.00
2016,07,22,12,35,21.10
2016,07,22,12,36,21.10
2016,07,22,12,37,21.10
2016,07,22,12,38,21.20
2016,07,22,12,39,21.30
2016,07,22,12,40,21.30
2016,07,22,12,41,21.30
2016,07,22,12,42,21.40
2016,07,22,12,43,21.40
2016,07,22,12,44,21.50
2016,07,22,12,45,21.60
2016,07,22,12,46,21.60
2016,07,22,12,47,21.60
2016,07,22,12,48,21.70
2016,07,22,12,49,21.70
2016,07,22,12,50,21.70
2016,07,22,12,51,21.70
2016,07,22,12,52,21.60
2016,07,22,12,53,21.60
2016,07,22,12,54,21.60
2016,07,22,12,55,21.50
2016,07,22,12,56,21.50
2016,07,22,12,57,21.50
2016,07,22,12,58,21.50
2016,07,22,12,59,21.50
2016,07,22,13,00,21.60
2016,07,22,13,01,21.60
2016,07,22,13,02,21.60
2016,07,22,13,03,21.70
2016,07,22,13,04,21.70
2016,07,22,13,05,21.70
2016,07,22,13,06,21.70
2016,07,22,13,07,21.70
2016,07,22,13,08,21.60
2016,07,22,13,09,21.60
2016,07,22,13,10,21.60
2016,07,22,13,11,21.60
2016,07,22,13,12,21.50
2016,07,22,13,13,21.50
2016,07,22,13,14,21.50
2016,07,22,13,15,21.50
2016,07,22,13,16,21.60
2016,07,22,13,17,21.60
2016,07,22,13,18,21.60
2016,07,22,13,19,21.60
2016,07,22,13,20,21.70
2016,07,22,13,21,21.70
2016,07,22,13,22,21.70
2016,07,22,13,23,21.80
2016,07,22,13,24,21.80
2016,07,22,13,25,21.80
2016,07,22,13,26,21.80
2016,07,22,13,27,21.80
2016,07,22,13,28,21.80
2016,07,22,13,29,21.70
2016,07,22,13,30,21.70
2016,07,22,13,31,21.70
2016,07,22,13,32,21.60
2016,07,22,13,33,21.60
2016,07,22,13,34,21.60
2016,07,22,13,35,21.70
2016,07,22,13,36,21.70
2016,07,22,13,37,21.70
2016,07,22,13,38,21.70
2016,07,22,13,39,21.70
2016,07,22,13,40,21.70
2016,07,22,13,41,21.70
2016,07,22,13,42,21.70
2016,07,22,13,43,21.70
2016,07,22,13,44,21.70
2016,07,22,13,45,21.60
2016,07,22,13,46,21.60
2016,07,22,13,47,21.50
2016,07,22,13,48,21.50
2016,07,22,13,49,21.50
2016,07,22,13,50,21.50
2016,07,22,13,51,21.60
2016,07,22,13,52,21.60
2016,07,22,13,53,21.70
2016,07,22,13,54,21.70
2016,07,22,13,55,21.70
2016,07,22,13,56,21.80
2016,07,22,13,57,21.80
2016,07,22,13,58,21.80
2016,07,22,13,59,21.80
2016,07,22,14,00,21.80
2016,07,22,14,01,21.80
2016,07,22,14,02,21.80
2016,07,22,14,03,21.80
2016,07,22,14,04,21.80
2016,07,22,14,05,21.80
2016,07,22,14,06,21.80
2016,07,22,14,07,21.90
2016,07,22,14,08,21.90
2016,07,22,14,09,21.90
2016,07,22,14,10,21.90
2016,07,22,14,11,21.90
2016,07,22,14,12,21.90
2016,07,22,14,13,21.90
2016,07,22,14,14,21.90
2016,07,22,14,15,22.00
2016,07,22,14,16,22.00
2016,07,22,14,17,22.10
2016,07,22,14,18,22.10
2016,07,22,14,19,22.10
2016,07,22,14,20,22.10
2016,07,22,14,21,22.10
2016,07,22,14,22,22.10
2016,07,22,14,23,22.10
2016,07,22,14,24,22.10
2016,07,22,14,25,22.20
2016,07,22,14,26,22.20
2016,07,22,14,27,22.20
2016,07,22,14,28,22.20
2016,07,22,14,29,22.30
2016,07,22,14,30,22.30
2016,07,22,14,31,22.30
2016,07,22,14,32,22.20
2016,07,22,14,33,22.20
2016,07,22,14,34,22.20
2016,07,22,14,35,22.20
2016,07,22,14,36,22.10
2016,07,22,14,37,22.10
2016,07,22,14,38,22.10
2016,07,22,14,39,22.00
2016,07,22,14,40,21.90
2016,07,22,14,41,21.90
2016,07,22,14,42,21.90
2016,07,22,14,43,21.90
2016,07,22,14,44,21.80
2016,07,22,14,45,21.80
2016,07,22,14,46,21.90
2016,07,22,14,47,22.00
2016,07,22,14,48,22.00
2016,07,22,14,49,22.10
2016,07,22,14,50,22.20
2016,07,22,14,51,22.20
2016,07,22,14,52,22.30
2016,07,22,14,53,22.30
2016,07,22,14,54,22.40
2016,07,22,14,55,22.40
2016,07,22,14,56,22.40
2016,07,22,14,57,22.40
2016,07,22,14,58,22.50
2016,07,22,14,59,22.50
2016,07,22,15,00,22.60
2016,07,22,15,01,22.60
2016,07,22,15,02,22.60
2016,07,22,15,03,22.60
2016,07,22,15,04,22.60
2016,07,22,15,05,22.60
2016,07,22,15,06,22.60
2016,07,22,15,07,22.50
2016,07,22,15,08,22.50
2016,07,22,15,09,22.40
2016,07,22,15,10,22.40
2016,07,22,15,11,22.40
2016,07,22,15,12,22.30
2016,07,22,15,13,22.30
2016,07,22,15,14,22.30
2016,07,22,15,15,22.30
2016,07,22,15,16,22.20
2016,07,22,15,17,22.20
2016,07,22,15,18,22.30
2016,07,22,15,19,22.30
2016,07,22,15,20,22.40
2016,07,22,15,21,22.40
2016,07,22,15,22,22.50
2016,07,22,15,23,22.60
2016,07,22,15,24,22.60
2016,07,22,15,25,22.60
2016,07,22,15,26,22.50
2016,07,22,15,27,22.50
2016,07,22,15,28,22.50
2016,07,22,15,29,22.50
2016,07,22,15,30,22.50
2016,07,22,15,31,22.50
2016,07,22,15,32,22.50
2016,07,22,15,33,22.50
2016,07,22,15,34,22.50
2016,07,22,15,35,22.50
2016,07,22,15,36,22.50
2016,07,22,15,37,22.60
2016,07,22,15,38,22.60
2016,07,22,15,39,22.60
2016,07,22,15,40,22.60
2016,07,22,15,41,22.60
2016,07,22,15,42,22.60
2016,07,22,15,43,22.60
2016,07,22,15,44,22.60
2016,07,22,15,45,22.60
2016,07,22,15,46,22.60
2016,07,22,15,47,22.60
2016,07,22,15,48,22.50
2016,07,22,15,49,22.50
2016,07,22,15,50,22.60
2016,07,22,15,51,22.60
2016,07,22,15,52,22.60
2016,07,22,15,53,22.70
2016,07,22,15,54,22.70
2016,07,22,15,55,22.70
2016,07,22,15,56,22.70
2016,07,22,15,57,22.70
2016,07,22,15,58,22.70
2016,07,22,15,59,22.70
2016,07,22,16,00,22.70
2016,07,22,16,01,22.70
2016,07,22,16,02,22.70
2016,07,22,16,03,22.80
2016,07,22,16,04,22.80
2016,07,22,16,05,22.80
2016,07,22,16,06,22.80
2016,07,22,16,07,22.80
2016,07,22,16,08,22.80
2016,07,22,16,09,22.80
2016,07,22,16,10,22.80
2016,07,22,16,11,22.80
2016,07,22,16,12,22.90
2016,07,22,16,13,22.90
2016,07,22,16,14,22.90
2016,07,22,16,15,22.90
2016,07,22,16,16,22.90
2016,07,22,16,17,22.90
2016,07,22,16,18,22.90
2016,07,22,16,19,23.00
2016,07,22,16,20,23.00
2016,07,22,16,21,23.10
2016,07,22,16,22,23.10
2016,07,22,16,23,23.10
2016,07,22,16,24,23.10
2016,07,22,16,25,23.20
2016,07,22,16,26,23.20
2016,07,22,16,27,23.10
2016,07,22,16,28,23.10
2016,07,22,16,29,23.10
2016,07,22,16,30,23.10
2016,07,22,16,31,23.20
2016,07,22,16,32,23.20
2016,07,22,16,33,23.20
2016,07,22,16,34,23.10
2016,07,22,16,35,23.10
2016,07,22,16,36,23.10
2016,07,22,16,37,23.10
2016,07,22,16,38,23.10
2016,07,22,16,39,23.10
2016,07,22,16,40,23.10
2016,07,22,16,41,23.10
2016,07,22,16,42,23.10
2016,07,22,16,43,23.00
2016,07,22,16,44,23.00
2016,07,22,16,45,23.00
2016,07,22,16,46,23.00
2016,07,22,16,47,23.00
2016,07,22,16,48,22.90
2016,07,22,16,49,22.90
2016,07,22,16,50,22.80
2016,07,22,16,51,22.80
2016,07,22,16,52,22.70
2016,07,22,16,53,22.60
2016,07,22,16,54,22.60
2016,07,22,16,55,22.50
2016,07,22,16,56,22.50
2016,07,22,16,57,22.40
2016,07,22,16,58,22.40
2016,07,22,16,59,22.40
2016,07,22,17,00,22.30
2016,07,22,17,01,22.30
2016,07,22,17,02,22.20
2016,07,22,17,03,22.20
2016,07,22,17,04,22.20
2016,07,22,17,05,22.10
2016,07,22,17,06,22.10
2016,07,22,17,07,22.10
2016,07,22,17,08,22.10
2016,07,22,17,09,22.10
2016,07,22,17,10,22.20
2016,07,22,17,11,22.20
2016,07,22,17,12,22.20
2016,07,22,17,13,22.30
2016,07,22,17,14,22.30
2016,07,22,17,15,22.30
2016,07,22,17,16,22.30
2016,07,22,17,17,22.40
2016,07,22,17,18,22.40
2016,07,22,17,19,22.40